Location: Blachownia
(50.7807°N, 18.9578°E)
Time: 21:43:21
(UTC+01:00)

ISS - Pass Details

Date: 24 January 2019
Orbit: 403 x 411 km, 51.6° (Epoch: 21 February)

Event Time Altitude Azimuth Distance (km) Brightness Sun altitude
Rises 17:44:04 0° 204° (SSW) 2,324 0.6 -12.9°
Reaches altitude 10° 17:46:39 10° 183° (S) 1,470 -0.8 -13.3°
Maximum altitude 17:48:50 17° 141° (SE) 1,134 -1.8 -13.6°
Enters shadow 17:49:33 16° 125° (SE) 1,175 -1.9 -13.7°
